TimeCDT,TemperatureF,Dew PointF,Humidity,Sea Level PressureIn,VisibilityMPH,Wind Direction,Wind SpeedMPH,Gust SpeedMPH,PrecipitationIn,Events,Conditions,WindDirDegrees,DateUTC
12:15 AM,30.0,20.8,69,30.08,10.0,North,4.6,-,N/A,,Scattered Clouds,360,2013-03-24 05:15:00
12:36 AM,30.9,21.2,67,30.08,10.0,NNE,4.6,-,N/A,,Clear,30,2013-03-24 05:36:00
12:55 AM,31.1,20.8,66,30.08,10.0,ENE,3.5,-,N/A,,Clear,60,2013-03-24 05:55:00
1:15 AM,31.1,20.3,64,30.08,10.0,NE,6.9,-,N/A,,Clear,50,2013-03-24 06:15:00
1:36 AM,30.4,20.7,67,30.08,10.0,NE,5.8,-,N/A,,Clear,50,2013-03-24 06:36:00
1:55 AM,30.0,20.8,69,30.08,10.0,NE,6.9,-,N/A,,Clear,50,2013-03-24 06:55:00
2:15 AM,29.8,20.3,68,30.08,10.0,ENE,6.9,-,N/A,,Clear,60,2013-03-24 07:15:00
2:36 AM,29.3,20.1,69,30.08,10.0,ENE,5.8,-,N/A,,Clear,60,2013-03-24 07:36:00
2:55 AM,28.8,19.9,70,30.08,10.0,ENE,5.8,-,N/A,,Scattered Clouds,70,2013-03-24 07:55:00
3:15 AM,28.8,19.9,70,30.08,10.0,ENE,8.1,-,N/A,,Overcast,70,2013-03-24 08:15:00
3:36 AM,28.8,19.8,69,30.07,10.0,ENE,5.8,-,N/A,,Overcast,60,2013-03-24 08:36:00
3:55 AM,28.4,19.9,71,30.08,10.0,ENE,3.5,-,N/A,,Overcast,60,2013-03-24 08:55:00
4:15 AM,28.4,19.4,69,30.08,10.0,NE,5.8,-,N/A,,Overcast,50,2013-03-24 09:15:00
4:35 AM,28.2,19.2,69,30.07,10.0,NE,5.8,-,N/A,,Overcast,40,2013-03-24 09:35:00
4:55 AM,27.9,19.2,70,30.07,10.0,NE,5.8,-,N/A,,Overcast,50,2013-03-24 09:55:00
5:15 AM,27.5,19.0,71,30.07,10.0,NE,6.9,-,N/A,,Overcast,50,2013-03-24 10:15:00
5:35 AM,27.3,18.9,70,30.07,10.0,ENE,6.9,-,N/A,,Overcast,60,2013-03-24 10:35:00
5:55 AM,27.0,18.5,70,30.07,10.0,NE,8.1,-,N/A,,Overcast,50,2013-03-24 10:55:00
6:15 AM,26.4,18.3,71,30.07,10.0,NE,8.1,-,N/A,,Mostly Cloudy,40,2013-03-24 11:15:00
6:35 AM,26.1,18.1,72,30.07,10.0,NE,6.9,-,N/A,,Scattered Clouds,50,2013-03-24 11:35:00
6:55 AM,25.7,18.0,73,30.07,10.0,NE,6.9,-,N/A,,Scattered Clouds,40,2013-03-24 11:55:00
7:15 AM,25.5,18.0,73,30.07,10.0,NE,4.6,-,N/A,,Mostly Cloudy,50,2013-03-24 12:15:00
7:35 AM,25.3,18.0,74,30.07,10.0,NNE,5.8,-,N/A,,Overcast,30,2013-03-24 12:35:00
7:55 AM,25.3,18.1,74,30.08,10.0,NNE,5.8,-,N/A,,Overcast,30,2013-03-24 12:55:00
8:15 AM,25.3,18.1,74,30.08,10.0,NNE,6.9,-,N/A,,Overcast,30,2013-03-24 13:15:00
8:35 AM,25.7,18.5,74,30.08,10.0,NNE,8.1,-,N/A,,Mostly Cloudy,20,2013-03-24 13:35:00
8:55 AM,25.9,18.3,73,30.08,10.0,NNE,8.1,-,N/A,,Scattered Clouds,30,2013-03-24 13:55:00
9:15 AM,26.6,18.5,71,30.07,10.0,NNE,8.1,-,N/A,,Scattered Clouds,20,2013-03-24 14:15:00
9:35 AM,27.1,19.0,72,30.07,10.0,NNE,6.9,-,N/A,,Scattered Clouds,30,2013-03-24 14:35:00
9:55 AM,27.9,19.4,71,30.07,10.0,NNE,13.8,20.7,N/A,,Mostly Cloudy,30,2013-03-24 14:55:00
10:15 AM,28.0,19.0,69,30.06,10.0,ENE,12.7,21.9,N/A,,Mostly Cloudy,60,2013-03-24 15:15:00
10:35 AM,28.9,19.4,68,30.06,10.0,NNE,11.5,16.1,N/A,,Scattered Clouds,20,2013-03-24 15:35:00
10:55 AM,29.3,19.6,67,30.06,10.0,NE,13.8,-,N/A,,Mostly Cloudy,50,2013-03-24 15:55:00
11:15 AM,29.8,20.1,67,30.05,10.0,NNE,13.8,-,N/A,,Overcast,20,2013-03-24 16:15:00
11:35 AM,30.2,20.3,67,30.04,10.0,NNE,12.7,16.1,N/A,,Overcast,20,2013-03-24 16:35:00
11:55 AM,30.6,19.9,65,30.04,10.0,NE,16.1,21.9,N/A,,Overcast,40,2013-03-24 16:55:00
12:15 PM,30.7,20.1,65,30.04,10.0,NE,13.8,19.6,N/A,,Overcast,40,2013-03-24 17:15:00
12:35 PM,30.7,19.9,64,30.03,10.0,NE,12.7,19.6,N/A,,Overcast,50,2013-03-24 17:35:00
12:55 PM,30.9,20.1,64,30.03,10.0,NE,9.2,16.1,N/A,,Overcast,50,2013-03-24 17:55:00
1:15 PM,31.1,20.3,64,30.03,10.0,NE,11.5,17.3,N/A,,Overcast,40,2013-03-24 18:15:00
1:35 PM,31.3,20.1,63,30.03,10.0,NE,11.5,-,N/A,,Overcast,50,2013-03-24 18:35:00
1:56 PM,31.1,20.1,64,30.03,10.0,NNE,11.5,-,N/A,,Overcast,30,2013-03-24 18:56:00
2:15 PM,31.5,20.5,64,30.02,10.0,NNE,12.7,-,N/A,,Overcast,20,2013-03-24 19:15:00
2:35 PM,31.8,20.7,63,30.02,10.0,NE,11.5,-,N/A,,Overcast,50,2013-03-24 19:35:00
2:56 PM,32.0,20.8,63,30.02,10.0,ENE,10.4,17.3,N/A,,Overcast,60,2013-03-24 19:56:00
3:15 PM,32.0,20.5,63,30.01,10.0,NNE,8.1,-,N/A,,Overcast,30,2013-03-24 20:15:00
3:35 PM,32.0,20.7,63,30.01,10.0,NNE,9.2,-,N/A,,Overcast,30,2013-03-24 20:35:00
3:56 PM,32.0,21.4,65,30.01,10.0,NNE,10.4,-,N/A,,Overcast,20,2013-03-24 20:56:00
4:15 PM,32.0,21.7,66,30.00,10.0,NNE,10.4,-,N/A,,Overcast,20,2013-03-24 21:15:00
4:34 PM,32.0,21.9,66,30.00,10.0,NNE,9.2,-,N/A,,Overcast,30,2013-03-24 21:34:00
4:55 PM,31.6,23.0,70,30.00,10.0,North,10.4,17.3,N/A,,Overcast,10,2013-03-24 21:55:00
5:15 PM,31.3,23.0,71,30.00,10.0,North,8.1,18.4,N/A,,Overcast,10,2013-03-24 22:15:00
5:35 PM,30.9,22.1,70,30.00,10.0,North,11.5,-,N/A,,Overcast,10,2013-03-24 22:35:00
5:55 PM,31.1,21.9,69,30.00,10.0,North,10.4,-,N/A,,Overcast,10,2013-03-24 22:55:00
6:15 PM,31.1,20.8,66,30.01,10.0,NNE,9.2,-,N/A,,Overcast,20,2013-03-24 23:15:00
6:35 PM,31.1,20.8,66,30.01,10.0,North,10.4,17.3,N/A,,Overcast,10,2013-03-24 23:35:00
6:55 PM,30.9,20.1,64,30.01,10.0,NNE,9.2,-,N/A,,Overcast,20,2013-03-24 23:55:00
7:15 PM,30.7,19.9,64,30.01,10.0,North,10.4,-,N/A,,Overcast,10,2013-03-25 00:15:00
7:35 PM,30.2,20.1,66,30.01,10.0,North,10.4,-,N/A,,Overcast,10,2013-03-25 00:35:00
7:55 PM,30.2,19.9,66,30.02,10.0,North,8.1,-,N/A,,Overcast,10,2013-03-25 00:55:00
8:15 PM,30.2,20.1,66,30.03,10.0,North,10.4,-,N/A,,Overcast,10,2013-03-25 01:15:00
8:35 PM,29.3,20.3,69,30.03,10.0,North,6.9,-,N/A,,Overcast,360,2013-03-25 01:35:00
8:55 PM,29.3,20.8,71,30.04,10.0,North,5.8,-,N/A,,Overcast,10,2013-03-25 01:55:00
9:15 PM,29.3,20.8,71,30.05,10.0,North,8.1,-,N/A,,Overcast,10,2013-03-25 02:15:00
9:35 PM,29.3,21.0,71,30.05,10.0,North,8.1,-,N/A,,Overcast,10,2013-03-25 02:35:00
9:55 PM,29.1,21.0,72,30.05,10.0,North,8.1,-,N/A,,Overcast,10,2013-03-25 02:55:00
10:15 PM,29.1,21.0,72,30.06,10.0,North,8.1,-,N/A,,Overcast,360,2013-03-25 03:15:00
10:35 PM,28.9,21.0,72,30.06,10.0,North,10.4,-,N/A,,Overcast,10,2013-03-25 03:35:00
10:55 PM,28.9,20.8,72,30.05,10.0,North,8.1,-,N/A,,Overcast,10,2013-03-25 03:55:00
11:15 PM,27.3,19.9,74,30.06,10.0,North,9.2,-,N/A,,Scattered Clouds,10,2013-03-25 04:15:00
11:35 PM,26.6,19.0,73,30.06,10.0,North,6.9,-,N/A,,Clear,360,2013-03-25 04:35:00
11:55 PM,26.2,18.5,73,30.06,10.0,North,8.1,-,N/A,,Clear,10,2013-03-25 04:55:00